Scottsbluff, NE

8:44 PM MDT on October 15, 2019 (GMT -0600)
Heilig

Weather History for KBFF - August, 2019

Change the Weather History Date:

Tuesday, August 6, 2019

  Actual Average Record
Temperature  
Mean Temperature 76 °F -  
Max Temperature 95 °F 89 °F 104 °F (1980)
Min Temperature 57 °F 58 °F 40 °F (1940)
Cooling Degree Days 11    
Growing Degree Days 26 (Base 50)    
Moisture  
Dew Point 59 °F    
Average Humidity 63    
Maximum Humidity 97    
Minimum Humidity 26    
Precipitation  
Precipitation 0.00 in - - ()
Sea Level Pressure  
Sea Level Pressure 29.92 in    
Wind  
Wind Speed 10 mph (East)    
Max Wind Speed 21 mph    
Max Gust Speed 28 mph    
Visibility 10 miles    
Events Rain , Thunderstorm    
Averages and records for this station are not official NWS values.
T = Trace of Precipitation, MM = Missing Value Source: NWS Daily Summary

Daily Weather History Graph

Daily Weather History Graph

Search for Another Location

Airport or City:

Astronomy

Aug. 06, 2019 Rise Set
Actual Time 5:53 AM MDT 8:06 PM MDT
Civil Twilight 5:22 AM MDT 8:37 PM MDT
Nautical Twilight 4:43 AM MDT 9:15 PM MDT
Astronomical Twilight 4:01 AM MDT 9:57 PM MDT
Moon 12:26 PM MDT (8/6) 11:46 PM MDT (8/6)
Length of Visible Light 15h 15m
Length of Day
14h 13m
Waxing Crescent, 39% of the Moon is Illuminated
Aug 6
Waxing Crescent
Aug 7
First Quarter
Aug 15
Full
Aug 23
Last Quarter
Aug 30
New

Hourly Weather History & Observations

Time (MDT) Temp. Heat Index Dew Point Humidity Pressure Visibility Wind Dir Wind Speed Gust Speed Precip Events Conditions
12:00 AM 64.9 °F - 55.9 °F 73% 30.17 in 10.0 mi East 20.7 mph - N/A Thunderstorm Overcast
12:09 AM 66.0 °F - 57.0 °F 73% 30.10 in 10.0 mi SE 16.1 mph 27.6 mph 0.00 in Rain , Thunderstorm Light Rain
12:17 AM 66.9 °F - 57.0 °F 70% 30.11 in 10.0 mi SSE 18.4 mph - 0.00 in Rain Light Rain
12:53 AM 64.9 °F - 54.0 °F 68% 29.97 in 10.0 mi South 9.2 mph - 0.00 in   Clear
1:53 AM 60.1 °F - 57.0 °F 90% 29.96 in 10.0 mi North 6.9 mph - N/A   Clear
2:53 AM 60.1 °F - 57.0 °F 90% 29.95 in 10.0 mi North 9.2 mph - N/A   Clear
3:53 AM 59.0 °F - 55.9 °F 90% 29.94 in 10.0 mi NW 6.9 mph - N/A   Clear
4:53 AM 59.0 °F - 57.0 °F 93% 29.94 in 10.0 mi West 4.6 mph - N/A   Clear
5:53 AM 57.9 °F - 57.0 °F 97% 29.95 in 10.0 mi West 5.8 mph - N/A   Clear
6:53 AM 63.0 °F - 59.0 °F 87% 29.97 in 10.0 mi Calm Calm - N/A   Clear
7:53 AM 68.0 °F - 59.0 °F 73% 29.97 in 10.0 mi Calm Calm - N/A   Clear
8:53 AM 72.0 °F - 61.0 °F 68% 29.96 in 10.0 mi East 4.6 mph - N/A   Clear
9:53 AM 75.0 °F - 62.1 °F 64% 29.94 in 10.0 mi East 10.4 mph - N/A   Clear
10:53 AM 81.0 °F 82.2 °F 63.0 °F 54% 29.92 in 10.0 mi ESE 8.1 mph - N/A   Clear
11:53 AM 84.0 °F 85.4 °F 64.0 °F 51% 29.92 in 10.0 mi East 9.2 mph - N/A   Clear
12:53 PM 87.1 °F 88.3 °F 64.0 °F 46% 29.90 in 10.0 mi East 5.8 mph - N/A   Clear
1:53 PM 90.0 °F 92.4 °F 66.0 °F 45% 29.88 in 10.0 mi East 8.1 mph - N/A   Clear
2:53 PM 91.9 °F 92.9 °F 63.0 °F 38% 29.85 in 10.0 mi East 8.1 mph - N/A   Clear
3:53 PM 93.9 °F 95.6 °F 64.0 °F 37% 29.83 in 10.0 mi East 6.9 mph - N/A   Clear
4:53 PM 93.9 °F 94.8 °F 62.1 °F 35% 29.80 in 10.0 mi East 9.2 mph - N/A   Clear
5:53 PM 91.9 °F 91.8 °F 61.0 °F 35% 29.80 in 10.0 mi East 6.9 mph - N/A   Clear
6:53 PM 82.9 °F 82.0 °F 55.0 °F 38% 29.83 in 10.0 mi NNE 13.8 mph 27.6 mph N/A   Clear
7:53 PM 79.0 °F - 55.0 °F 44% 29.82 in 10.0 mi ENE 13.8 mph - N/A   Clear
8:53 PM 75.0 °F - 55.0 °F 50% 29.84 in 10.0 mi SSE 3.5 mph - N/A   Clear
9:53 PM 69.1 °F - 59.0 °F 70% 29.86 in 10.0 mi North 4.6 mph - N/A   Clear
10:53 PM 66.9 °F - 59.0 °F 76% 29.86 in 10.0 mi NW 5.8 mph - N/A   Clear
11:53 PM 66.9 °F - 57.9 °F 73% 29.85 in 10.0 mi Calm Calm - N/A   Clear